Weather History for KDIK - October, 2012

Change the Weather History Date:

Saturday, October 13, 2012

  Actual Average Record
Temperature  
Mean Temperature 52 °F 45 °F  
Max Temperature 68 °F 58 °F 87 °F (1958)
Min Temperature 35 °F 32 °F 15 °F (1909)
Degree Days  
Heating Degree Days 13 20  
Month to date heating degree days 292 226  
Since 1 July heating degree days 516 580  
Cooling Degree Days 0 0  
Month to date cooling degree days 0 0  
Year to date cooling degree days 591 418  
Growing Degree Days 4 (Base 50)    
Moisture  
Dew Point 35 °F    
Average Humidity 54    
Maximum Humidity 79    
Minimum Humidity 29    
Precipitation  
Precipitation 0.00 in 0.04 in 0.77 in (1975)
Month to date precipitation 0.61 0.58  
Year to date precipitation 9.20 14.34  
Sea Level Pressure  
Sea Level Pressure 29.78 in    
Wind  
Wind Speed 9 mph (NW)    
Max Wind Speed 22 mph    
Max Gust Speed 26 mph    
Visibility 10 miles    
Events      
T = Trace of Precipitation, MM = Missing Value Source: NWS Daily Summary

Daily Weather History Graph

Daily Weather History Graph

Search for Another Location

Airport or City:

Trip Planner

Search our weather history database for the weather conditions in past years. The results will help you decide how hot, cold, wet, or windy it might be!

Date:

Astronomy

Oct. 13, 2012 Rise Set
Actual Time 7:06 AM MDT 6:06 PM MDT
Civil Twilight 6:36 AM MDT 6:37 PM MDT
Nautical Twilight 6:01 AM MDT 7:12 PM MDT
Astronomical Twilight 5:26 AM MDT 7:47 PM MDT
Moon 4:53 AM MDT (10/13) 4:55 PM MDT (10/13)
Length of Visible Light 12h 00m
Length of Day
10h 59m
Waning Crescent, 4% of the Moon is Illuminated
Oct 13
Waning Crescent
Oct 15
New
Oct 21
First Quarter
Oct 29
Full
Nov 6
Last Quarter

Hourly Weather History & Observations

Time (MDT) Temp. Windchill Dew Point Humidity Pressure Visibility Wind Dir Wind Speed Gust Speed Precip Events Conditions
1:56 AM 43.0 °F 38.8 °F 32.0 °F 65% 29.64 in 10.0 mi WNW 6.9 mph - N/A   Clear
2:56 AM 39.9 °F 35.8 °F 32.0 °F 73% 29.63 in 10.0 mi SSW 5.8 mph - N/A   Clear
3:56 AM 39.9 °F 36.7 °F 32.0 °F 73% 29.64 in 10.0 mi West 4.6 mph - N/A   Clear
4:56 AM 41.0 °F 34.3 °F 34.0 °F 76% 29.65 in 10.0 mi West 11.5 mph - N/A   Clear
5:56 AM 43.0 °F 36.8 °F 35.1 °F 74% 29.68 in 10.0 mi WNW 11.5 mph - N/A   Clear
6:56 AM 41.0 °F 35.8 °F 35.1 °F 79% 29.72 in 10.0 mi NW 8.1 mph - N/A   Clear
7:56 AM 45.0 °F 41.2 °F 36.0 °F 71% 29.75 in 10.0 mi WNW 6.9 mph - N/A   Clear
8:56 AM 52.0 °F - 37.9 °F 59% 29.76 in 10.0 mi WNW 10.4 mph - N/A   Clear
9:56 AM 57.0 °F - 37.0 °F 47% 29.76 in 10.0 mi WNW 12.7 mph - N/A   Clear
10:56 AM 61.0 °F - 36.0 °F 39% 29.78 in 10.0 mi WNW 16.1 mph - N/A   Clear
11:56 AM 62.1 °F - 36.0 °F 38% 29.78 in 10.0 mi NW 13.8 mph - N/A   Clear
12:56 PM 66.0 °F - 35.1 °F 32% 29.78 in 10.0 mi NNW 15.0 mph - N/A   Clear
1:56 PM 68.0 °F - 35.1 °F 30% 29.77 in 10.0 mi NW 18.4 mph 23.0 mph N/A   Clear
2:56 PM 66.0 °F - 33.1 °F 29% 29.80 in 10.0 mi NNW 19.6 mph 26.5 mph N/A   Clear
3:56 PM 61.0 °F - 35.1 °F 38% 29.83 in 10.0 mi NW 12.7 mph - N/A   Partly Cloudy
4:56 PM 57.9 °F - 36.0 °F 44% 29.86 in 10.0 mi NW 13.8 mph 18.4 mph N/A   Clear
5:56 PM 55.0 °F - 36.0 °F 49% 29.87 in 10.0 mi NNW 8.1 mph - N/A   Overcast
8:56 PM 46.0 °F 44.8 °F 36.0 °F 68% 29.94 in 10.0 mi WNW 3.5 mph - N/A   Clear
9:56 PM 45.0 °F 43.5 °F 36.0 °F 71% 29.95 in 10.0 mi NW 3.5 mph - N/A   Partly Cloudy
11:56 PM 46.9 °F - 37.0 °F 68% 29.93 in 10.0 mi Calm Calm - N/A   Overcast